Location: Unspecified
(35.6961°N, 0.0000°E)
Time: 00:09:53
(UTC+00:00)

S-56A Canister/Altair - Pass Details

Date: 27 May 2019
Orbit: 633 x 2499 km, 38.9° (Epoch: 19 June)

Event Time Altitude Azimuth Distance (km) Brightness Sun altitude
Rises 00:06:23 0° 242° (WSW) 3,033 - -33.0°
Reaches altitude 10° 00:08:28 10° 240° (WSW) 2,217 - -33.0°
Maximum altitude 00:13:30 73° 156° (SSE) 925 - -33.0°
Exits shadow 00:16:15 36° 80° (E) 1,525 9.0 -32.9°
Drops below altitude 10° 00:20:45 10° 73° (ENE) 3,145 10.9 -32.8°
Sets 00:24:13 0° 72° (ENE) 4,419 11.7 -32.7°
